EZY67UB EGPH-LFPG

Flight info

Callsign EZY67UB
Flight time 1h 22m
Altitude 37000
Route GOSAM P600 FENIK L612 ELBUS UL612 WOD UM605 BIBAX
Aircraft A320/M-SDE3FGHIRWY/LB1

Departure

Time 2026-05-08 00:03
Airport Edinburgh Airport (EGPH)

Arrival

Time 2026-05-08 01:25
Airport Charles de Gaulle International Airport (LFPG)
Time Latitude Longitude Altitude Speed Heading
2026-05-07 23:47 55.94810 -3.35749 113 ft 0 kts 208°
2026-05-07 23:55 55.94812 -3.35747 113 ft 2 kts 208°
2026-05-07 23:55 55.94835 -3.35725 112 ft 4 kts 208°
2026-05-07 23:55 55.94855 -3.35706 113 ft 4 kts 219°
2026-05-07 23:56 55.94868 -3.35672 112 ft 4 kts 269°
2026-05-07 23:56 55.94864 -3.35635 113 ft 1 kts 298°
2026-05-07 23:58 55.94871 -3.35660 114 ft 7 kts 298°
2026-05-07 23:58 55.94901 -3.35756 115 ft 8 kts 298°
2026-05-07 23:58 55.94936 -3.35845 115 ft 12 kts 322°
2026-05-07 23:58 55.95014 -3.35831 115 ft 11 kts 30°
2026-05-07 23:59 55.95082 -3.35781 115 ft 9 kts 355°
2026-05-07 23:59 55.95110 -3.35838 114 ft 10 kts 300°
2026-05-07 23:59 55.95147 -3.35928 115 ft 8 kts 327°
2026-05-07 23:59 55.95219 -3.35984 116 ft 12 kts
2026-05-08 00:00 55.95267 -3.35889 115 ft 11 kts 59°
2026-05-08 00:00 55.95314 -3.35749 116 ft 13 kts 59°
2026-05-08 00:00 55.95359 -3.35617 116 ft 12 kts 59°
2026-05-08 00:00 55.95401 -3.35493 116 ft 11 kts 59°
2026-05-08 00:01 55.95448 -3.35401 115 ft 10 kts 14°
2026-05-08 00:01 55.95505 -3.35447 113 ft 9 kts 329°
2026-05-08 00:01 55.95564 -3.35512 112 ft 11 kts 319°
2026-05-08 00:01 55.95558 -3.35603 111 ft 3 kts 239°
2026-05-08 00:02 55.95527 -3.35694 111 ft 35 kts 238°
2026-05-08 00:02 55.95264 -3.36464 112 ft 106 kts 239°
2026-05-08 00:02 55.94783 -3.37888 127 ft 158 kts 236°
2026-05-08 00:03 55.94221 -3.39598 745 ft 159 kts 236°
2026-05-08 00:03 55.93649 -3.41263 1467 ft 160 kts 235°
2026-05-08 00:03 55.93022 -3.43054 1829 ft 182 kts 235°
2026-05-08 00:03 55.92307 -3.45092 2186 ft 206 kts 236°
2026-05-08 00:04 55.91506 -3.47390 2681 ft 227 kts 237°
2026-05-08 00:04 55.90683 -3.49854 3524 ft 234 kts 244°
2026-05-08 00:04 55.90256 -3.52693 4411 ft 241 kts 257°
2026-05-08 00:04 55.89962 -3.55658 5317 ft 245 kts 257°
2026-05-08 00:05 55.89665 -3.58667 5876 ft 253 kts 257°
2026-05-08 00:05 55.89355 -3.61796 6776 ft 254 kts 257°
2026-05-08 00:05 55.89050 -3.64881 7630 ft 257 kts 257°
2026-05-08 00:05 55.88735 -3.68043 8498 ft 260 kts 257°
2026-05-08 00:06 55.88414 -3.71238 9360 ft 264 kts 257°
2026-05-08 00:06 55.88087 -3.74472 10161 ft 268 kts 257°
2026-05-08 00:06 55.87739 -3.77885 10453 ft 291 kts 257°
2026-05-08 00:06 55.87365 -3.81567 10753 ft 311 kts 257°
2026-05-08 00:07 55.86982 -3.85415 11356 ft 319 kts 257°
2026-05-08 00:07 55.86597 -3.89326 12089 ft 323 kts 257°
2026-05-08 00:07 55.86205 -3.93290 12841 ft 327 kts 257°
2026-05-08 00:07 55.85806 -3.97302 13632 ft 329 kts 257°
2026-05-08 00:08 55.85400 -4.01324 14361 ft 331 kts 257°
2026-05-08 00:08 55.84990 -4.05373 15037 ft 334 kts 257°
2026-05-08 00:08 55.84539 -4.09431 15691 ft 335 kts 251°
2026-05-08 00:08 55.83563 -4.13196 16331 ft 335 kts 234°
2026-05-08 00:09 55.81981 -4.16234 16963 ft 338 kts 218°
2026-05-08 00:09 55.80046 -4.18634 17624 ft 340 kts 215°
2026-05-08 00:09 55.78083 -4.21018 18261 ft 343 kts 215°
2026-05-08 00:09 55.76106 -4.23425 18829 ft 346 kts 213°
2026-05-08 00:10 55.73930 -4.25284 19380 ft 351 kts 200°
2026-05-08 00:10 55.71518 -4.26135 19937 ft 358 kts 186°
2026-05-08 00:10 55.69010 -4.25838 20465 ft 367 kts 172°
2026-05-08 00:10 55.66573 -4.24349 21012 ft 377 kts 159°
2026-05-08 00:11 55.64232 -4.22235 21580 ft 380 kts 156°
2026-05-08 00:11 55.61924 -4.19997 22125 ft 384 kts 155°
2026-05-08 00:11 55.59593 -4.17658 22671 ft 387 kts 155°
2026-05-08 00:11 55.57253 -4.15291 23189 ft 389 kts 155°
2026-05-08 00:12 55.54886 -4.12914 23672 ft 392 kts 155°
2026-05-08 00:12 55.52505 -4.10550 24098 ft 394 kts 155°
2026-05-08 00:12 55.50101 -4.08191 24520 ft 396 kts 155°
2026-05-08 00:12 55.47687 -4.05842 24924 ft 398 kts 156°
2026-05-08 00:13 55.45248 -4.03480 25288 ft 400 kts 155°
2026-05-08 00:13 55.42801 -4.01115 25663 ft 403 kts 155°
2026-05-08 00:13 55.40337 -3.98738 26049 ft 405 kts 155°
2026-05-08 00:13 55.37851 -3.96341 26440 ft 407 kts 155°
2026-05-08 00:14 55.35359 -3.93934 26812 ft 409 kts 155°
2026-05-08 00:14 55.32863 -3.91521 27155 ft 411 kts 155°
2026-05-08 00:14 55.30345 -3.89094 27524 ft 413 kts 155°
2026-05-08 00:14 55.27818 -3.86665 27876 ft 415 kts 155°
2026-05-08 00:15 55.25274 -3.84227 28182 ft 417 kts 155°
2026-05-08 00:15 55.22721 -3.81782 28514 ft 420 kts 155°
2026-05-08 00:15 55.20151 -3.79326 28824 ft 421 kts 155°
2026-05-08 00:15 55.17606 -3.76892 29103 ft 424 kts 155°
2026-05-08 00:16 55.14981 -3.74389 29409 ft 426 kts 155°
2026-05-08 00:16 55.12371 -3.71901 29718 ft 428 kts 155°
2026-05-08 00:16 55.09789 -3.69438 30022 ft 430 kts 155°
2026-05-08 00:16 55.07157 -3.66935 30247 ft 431 kts 155°
2026-05-08 00:17 55.04512 -3.64424 30483 ft 433 kts 155°
2026-05-08 00:17 55.01866 -3.61920 30711 ft 434 kts 155°
2026-05-08 00:17 54.99205 -3.59405 30924 ft 436 kts 155°
2026-05-08 00:17 54.96530 -3.56878 31192 ft 436 kts 155°
2026-05-08 00:18 54.93872 -3.54368 31470 ft 435 kts 155°
2026-05-08 00:18 54.91208 -3.51860 31746 ft 435 kts 155°
2026-05-08 00:18 54.88543 -3.49355 32038 ft 435 kts 155°
2026-05-08 00:18 54.85883 -3.46853 32335 ft 435 kts 155°
2026-05-08 00:19 54.83222 -3.44357 32628 ft 434 kts 155°
2026-05-08 00:19 54.80569 -3.41876 32923 ft 434 kts 155°
2026-05-08 00:19 54.77909 -3.39392 33205 ft 433 kts 155°
2026-05-08 00:19 54.75257 -3.36920 33498 ft 433 kts 155°
2026-05-08 00:20 54.72608 -3.34458 33796 ft 433 kts 156°
2026-05-08 00:20 54.69920 -3.32127 34070 ft 431 kts 158°
2026-05-08 00:20 54.67193 -3.29989 34307 ft 430 kts 160°
2026-05-08 00:20 54.64434 -3.27967 34530 ft 430 kts 161°
2026-05-08 00:21 54.61667 -3.25997 34757 ft 430 kts 161°
2026-05-08 00:21 54.58897 -3.24025 34955 ft 431 kts 161°
2026-05-08 00:21 54.56147 -3.22040 35158 ft 431 kts 160°
2026-05-08 00:21 54.53371 -3.19996 35350 ft 432 kts 160°
2026-05-08 00:22 54.50611 -3.17938 35529 ft 433 kts 160°
2026-05-08 00:22 54.47844 -3.15862 35723 ft 433 kts 159°
2026-05-08 00:22 54.45083 -3.13789 35910 ft 433 kts 160°
2026-05-08 00:22 54.42319 -3.11725 36096 ft 434 kts 160°
2026-05-08 00:23 54.39581 -3.09691 36255 ft 434 kts 160°
2026-05-08 00:23 54.36803 -3.07636 36440 ft 435 kts 160°
2026-05-08 00:23 54.34030 -3.05592 36602 ft 435 kts 160°
2026-05-08 00:23 54.31242 -3.03539 36770 ft 436 kts 160°
2026-05-08 00:24 54.28458 -3.01491 36951 ft 436 kts 160°
2026-05-08 00:24 54.25666 -2.99442 37038 ft 436 kts 160°
2026-05-08 00:24 54.20087 -2.95344 37036 ft 437 kts 159°
2026-05-08 00:25 54.14497 -2.91238 37051 ft 438 kts 160°
2026-05-08 00:25 54.08901 -2.87154 37048 ft 438 kts 160°
2026-05-08 00:26 54.03300 -2.83092 37047 ft 437 kts 160°
2026-05-08 00:26 53.97701 -2.79026 37042 ft 437 kts 160°
2026-05-08 00:27 53.92099 -2.74972 37033 ft 438 kts 160°
2026-05-08 00:27 53.86495 -2.70926 37052 ft 438 kts 160°
2026-05-08 00:28 53.80883 -2.66885 37054 ft 438 kts 160°
2026-05-08 00:28 53.75269 -2.62855 37064 ft 438 kts 160°
2026-05-08 00:29 53.69651 -2.58847 37034 ft 438 kts 160°
2026-05-08 00:29 53.64069 -2.54872 37039 ft 439 kts 160°
2026-05-08 00:30 53.58443 -2.50867 37043 ft 439 kts 160°
2026-05-08 00:30 53.52811 -2.46875 37048 ft 439 kts 160°
2026-05-08 00:31 53.47178 -2.42897 37051 ft 439 kts 160°
2026-05-08 00:31 53.41547 -2.38928 37056 ft 439 kts 160°
2026-05-08 00:32 53.35907 -2.34952 37058 ft 439 kts 160°
2026-05-08 00:32 53.30265 -2.30993 37060 ft 439 kts 160°
2026-05-08 00:33 53.24620 -2.27052 37060 ft 439 kts 160°
2026-05-08 00:33 53.18983 -2.23126 37056 ft 439 kts 160°
2026-05-08 00:34 53.13376 -2.19238 37058 ft 439 kts 160°
2026-05-08 00:34 53.07738 -2.15344 37059 ft 439 kts 160°
2026-05-08 00:35 53.02098 -2.11451 37064 ft 439 kts 160°
2026-05-08 00:35 52.96452 -2.07552 37052 ft 439 kts 160°
2026-05-08 00:36 52.90814 -2.03678 37057 ft 439 kts 160°
2026-05-08 00:36 52.85162 -1.99813 37050 ft 439 kts 160°
2026-05-08 00:37 52.79514 -1.95959 37054 ft 439 kts 160°
2026-05-08 00:38 52.71024 -1.90176 37054 ft 440 kts 160°
2026-05-08 00:38 52.65363 -1.86329 37069 ft 440 kts 160°
2026-05-08 00:39 52.59698 -1.82502 37078 ft 440 kts 160°
2026-05-08 00:39 52.54007 -1.78678 37084 ft 440 kts 160°
2026-05-08 00:40 52.48368 -1.74883 37077 ft 441 kts 160°
2026-05-08 00:40 52.42693 -1.71076 37081 ft 440 kts 160°
2026-05-08 00:41 52.37013 -1.67274 37085 ft 441 kts 160°
2026-05-08 00:41 52.31407 -1.63181 37087 ft 442 kts 156°
2026-05-08 00:42 52.25931 -1.58568 37084 ft 443 kts 154°
2026-05-08 00:42 52.20470 -1.53893 37088 ft 443 kts 155°
2026-05-08 00:43 52.14983 -1.49359 37089 ft 443 kts 156°
2026-05-08 00:43 52.09459 -1.44905 37082 ft 443 kts 156°
2026-05-08 00:44 52.04867 -1.41215 37086 ft 442 kts 156°
2026-05-08 00:44 51.99354 -1.36758 37082 ft 442 kts 156°
2026-05-08 00:45 51.93844 -1.32300 37076 ft 443 kts 156°
2026-05-08 00:45 51.88332 -1.27850 37081 ft 443 kts 156°
2026-05-08 00:46 51.82818 -1.23420 37084 ft 443 kts 156°
2026-05-08 00:46 51.77302 -1.19008 37070 ft 443 kts 156°
2026-05-08 00:47 51.71816 -1.14625 37076 ft 443 kts 156°
2026-05-08 00:47 51.66295 -1.10226 37083 ft 443 kts 156°
2026-05-08 00:48 51.60799 -1.05577 37087 ft 445 kts 148°
2026-05-08 00:48 51.55775 -0.99836 37076 ft 446 kts 147°
2026-05-08 00:49 51.50711 -0.94067 37075 ft 446 kts 147°
2026-05-08 00:49 51.45654 -0.88286 37075 ft 447 kts 144°
2026-05-08 00:50 51.41017 -0.81595 37079 ft 449 kts 140°
2026-05-08 00:50 51.36417 -0.74831 37084 ft 449 kts 140°
2026-05-08 00:51 51.31816 -0.68084 37076 ft 449 kts 140°
2026-05-08 00:51 51.27210 -0.61343 37079 ft 449 kts 140°
2026-05-08 00:52 51.22599 -0.54613 37083 ft 449 kts 140°
2026-05-08 00:52 51.17980 -0.47897 37084 ft 449 kts 140°
2026-05-08 00:53 51.13357 -0.41209 37083 ft 449 kts 140°
2026-05-08 00:53 51.08761 -0.34560 37087 ft 449 kts 140°
2026-05-08 00:54 51.04123 -0.27869 37089 ft 449 kts 140°
2026-05-08 00:54 50.99493 -0.21207 37090 ft 449 kts 140°
2026-05-08 00:55 50.94855 -0.14558 37084 ft 449 kts 141°
2026-05-08 00:55 50.90212 -0.07926 37085 ft 449 kts 141°
2026-05-08 00:56 50.85564 -0.01303 37074 ft 449 kts 141°
2026-05-08 00:56 50.80916 0.05305 37076 ft 449 kts 141°
2026-05-08 00:57 50.76264 0.11904 37080 ft 449 kts 141°
2026-05-08 00:57 50.71505 0.18277 37091 ft 448 kts 144°
2026-05-08 00:58 50.66663 0.24356 37076 ft 448 kts 144°
2026-05-08 00:58 50.61771 0.30474 37076 ft 448 kts 144°
2026-05-08 00:59 50.56921 0.36629 37073 ft 448 kts 143°
2026-05-08 00:59 50.52076 0.42797 37073 ft 448 kts 144°
2026-05-08 00:59 50.49646 0.45880 36640 ft 450 kts 144°
2026-05-08 01:00 50.47195 0.48985 35745 ft 453 kts 144°
2026-05-08 01:00 50.44739 0.52093 34934 ft 454 kts 144°
2026-05-08 01:00 50.42281 0.55195 34173 ft 453 kts 144°
2026-05-08 01:00 50.39829 0.58287 33416 ft 450 kts 144°
2026-05-08 01:01 50.37388 0.61360 32418 ft 452 kts 144°
2026-05-08 01:01 50.34961 0.64413 31454 ft 453 kts 144°
2026-05-08 01:01 50.32509 0.67494 30675 ft 450 kts 144°
2026-05-08 01:01 50.30077 0.70549 29990 ft 446 kts 144°
2026-05-08 01:02 50.27662 0.73571 29234 ft 442 kts 144°
2026-05-08 01:02 50.25276 0.76552 28638 ft 434 kts 144°
2026-05-08 01:02 50.22939 0.79472 28066 ft 428 kts 144°
2026-05-08 01:02 50.20630 0.82354 27512 ft 422 kts 144°
2026-05-08 01:03 50.18355 0.85190 26957 ft 416 kts 144°
2026-05-08 01:03 50.16107 0.87985 26439 ft 410 kts 144°
2026-05-08 01:03 50.13880 0.90744 25912 ft 405 kts 144°
2026-05-08 01:03 50.11684 0.93460 25412 ft 400 kts 144°
2026-05-08 01:04 50.09517 0.96138 24925 ft 396 kts 144°
2026-05-08 01:04 50.07377 0.98787 24449 ft 391 kts 144°
2026-05-08 01:04 50.05191 1.01164 23982 ft 385 kts 153°
2026-05-08 01:04 50.02793 1.03037 23553 ft 379 kts 156°
2026-05-08 01:05 50.00459 1.04790 23079 ft 375 kts 156°
2026-05-08 01:05 49.98126 1.06541 22662 ft 371 kts 156°
2026-05-08 01:05 49.95808 1.08278 22238 ft 369 kts 156°
2026-05-08 01:05 49.93502 1.10008 21830 ft 366 kts 156°
2026-05-08 01:06 49.91219 1.11728 21421 ft 364 kts 156°
2026-05-08 01:06 49.88943 1.13445 21011 ft 362 kts 156°
2026-05-08 01:06 49.86681 1.15147 20603 ft 360 kts 156°
2026-05-08 01:06 49.84436 1.16830 20200 ft 358 kts 156°
2026-05-08 01:07 49.82200 1.18506 19794 ft 356 kts 156°
2026-05-08 01:07 49.79976 1.20169 19392 ft 354 kts 156°
2026-05-08 01:07 49.77763 1.21823 18993 ft 352 kts 156°
2026-05-08 01:07 49.75565 1.23461 18609 ft 351 kts 156°
2026-05-08 01:08 49.73367 1.25096 18180 ft 349 kts 156°
2026-05-08 01:08 49.71188 1.26715 17793 ft 346 kts 156°
2026-05-08 01:08 49.69021 1.28328 17385 ft 344 kts 156°
2026-05-08 01:08 49.66871 1.29926 17001 ft 342 kts 156°
2026-05-08 01:09 49.64730 1.31515 16612 ft 340 kts 156°
2026-05-08 01:09 49.62605 1.33092 16227 ft 339 kts 156°
2026-05-08 01:09 49.60486 1.34660 15832 ft 337 kts 156°
2026-05-08 01:09 49.58375 1.36220 15459 ft 336 kts 156°
2026-05-08 01:10 49.56274 1.37772 15081 ft 334 kts 156°
2026-05-08 01:10 49.54182 1.39311 14708 ft 332 kts 156°
2026-05-08 01:10 49.52097 1.40841 14334 ft 331 kts 156°
2026-05-08 01:10 49.50025 1.42364 13965 ft 329 kts 156°
2026-05-08 01:11 49.47966 1.43882 13557 ft 326 kts 156°
2026-05-08 01:11 49.45926 1.45389 13189 ft 325 kts 156°
2026-05-08 01:11 49.43915 1.46871 12832 ft 324 kts 156°
2026-05-08 01:11 49.41887 1.48361 12466 ft 323 kts 156°
2026-05-08 01:12 49.39858 1.49848 12100 ft 323 kts 156°
2026-05-08 01:12 49.37837 1.51326 11738 ft 322 kts 156°
2026-05-08 01:12 49.35808 1.52806 11375 ft 321 kts 156°
2026-05-08 01:12 49.33825 1.54255 11225 ft 310 kts 155°
2026-05-08 01:13 49.32023 1.55952 11072 ft 301 kts 140°
2026-05-08 01:13 49.30683 1.58359 10926 ft 297 kts 121°
2026-05-08 01:13 49.29897 1.61272 10838 ft 297 kts 103°
2026-05-08 01:13 49.29663 1.64418 10675 ft 297 kts 93°
2026-05-08 01:14 49.29530 1.67577 10496 ft 296 kts 93°
2026-05-08 01:14 49.29350 1.70714 10314 ft 296 kts 101°
2026-05-08 01:14 49.28678 1.73672 10139 ft 294 kts 119°
2026-05-08 01:14 49.27480 1.76152 9880 ft 294 kts 136°
2026-05-08 01:15 49.25841 1.77978 9500 ft 290 kts 155°
2026-05-08 01:15 49.24009 1.79222 9139 ft 288 kts 159°
2026-05-08 01:15 49.22161 1.80465 8684 ft 288 kts 158°
2026-05-08 01:15 49.20340 1.81695 8382 ft 286 kts 158°
2026-05-08 01:16 49.18521 1.82916 8105 ft 284 kts 158°
2026-05-08 01:16 49.16711 1.84115 7807 ft 283 kts 158°
2026-05-08 01:16 49.14907 1.85296 7530 ft 282 kts 157°
2026-05-08 01:16 49.13137 1.86581 7280 ft 280 kts 146°
2026-05-08 01:17 49.11745 1.88633 7159 ft 280 kts 123°
2026-05-08 01:17 49.10723 1.91168 7043 ft 280 kts 120°
2026-05-08 01:17 49.09731 1.93724 6897 ft 280 kts 120°
2026-05-08 01:17 49.08745 1.96288 6525 ft 279 kts 119°
2026-05-08 01:18 49.07766 1.98837 6063 ft 278 kts 119°
2026-05-08 01:18 49.06791 2.01375 5629 ft 277 kts 119°
2026-05-08 01:18 49.05838 2.03857 5499 ft 263 kts 120°
2026-05-08 01:18 49.04935 2.06197 5402 ft 249 kts 120°
2026-05-08 01:19 49.04075 2.08410 5297 ft 237 kts 120°
2026-05-08 01:19 49.03264 2.10494 5196 ft 227 kts 120°
2026-05-08 01:19 49.02452 2.12586 5093 ft 226 kts 120°
2026-05-08 01:19 49.01665 2.14613 5009 ft 224 kts 120°
2026-05-08 01:20 49.00901 2.16694 4935 ft 225 kts 110°
2026-05-08 01:20 49.00612 2.18995 4715 ft 221 kts 87°
2026-05-08 01:20 49.00733 2.21324 4433 ft 220 kts 84°
2026-05-08 01:20 49.00871 2.23633 4167 ft 219 kts 84°
2026-05-08 01:21 49.01002 2.25921 3872 ft 213 kts 85°
2026-05-08 01:21 49.01125 2.28103 3589 ft 201 kts 85°
2026-05-08 01:21 49.01240 2.30151 3355 ft 187 kts 85°
2026-05-08 01:21 49.01347 2.32048 3106 ft 168 kts 85°
2026-05-08 01:22 49.01441 2.33732 2866 ft 152 kts 85°
2026-05-08 01:22 49.01526 2.35270 2669 ft 142 kts 86°
2026-05-08 01:22 49.01608 2.36748 2479 ft 138 kts 86°
2026-05-08 01:22 49.01688 2.38188 2297 ft 136 kts 86°
2026-05-08 01:23 49.01767 2.39623 2116 ft 135 kts 86°
2026-05-08 01:23 49.01846 2.41047 1929 ft 134 kts 86°
2026-05-08 01:23 49.01923 2.42445 1757 ft 134 kts 86°
2026-05-08 01:23 49.02001 2.43862 1567 ft 134 kts 86°
2026-05-08 01:24 49.02078 2.45273 1389 ft 134 kts 86°
2026-05-08 01:24 49.02156 2.46688 1198 ft 134 kts 86°
2026-05-08 01:24 49.02233 2.48103 1006 ft 135 kts 85°
2026-05-08 01:24 49.02311 2.49528 824 ft 135 kts 84°
2026-05-08 01:25 49.02393 2.50954 627 ft 135 kts 84°
2026-05-08 01:25 49.02470 2.52375 419 ft 134 kts 85°
2026-05-08 01:25 49.02540 2.53694 360 ft 101 kts 86°
2026-05-08 01:25 49.02575 2.54366 353 ft 38 kts 93°
2026-05-08 01:26 49.02515 2.54740 357 ft 35 kts 105°
2026-05-08 01:26 49.02459 2.55042 358 ft 29 kts 105°
2026-05-08 01:26 49.02453 2.55321 361 ft 25 kts 85°
2026-05-08 01:26 49.02456 2.55550 357 ft 18 kts 115°
2026-05-08 01:27 49.02346 2.55622 354 ft 19 kts 175°
2026-05-08 01:27 49.02220 2.55637 359 ft 18 kts 175°
2026-05-08 01:27 49.02096 2.55652 354 ft 19 kts 175°
2026-05-08 01:27 49.01973 2.55669 354 ft 17 kts 175°
2026-05-08 01:28 49.01896 2.55629 354 ft 14 kts 238°
2026-05-08 01:28 49.01881 2.55463 354 ft 16 kts 265°
2026-05-08 01:28 49.01872 2.55300 358 ft 15 kts 265°
2026-05-08 01:28 49.01863 2.55139 354 ft 15 kts 265°
2026-05-08 01:29 49.01855 2.54987 354 ft 14 kts 265°
2026-05-08 01:29 49.01820 2.54867 354 ft 14 kts 208°
2026-05-08 01:29 49.01717 2.54870 361 ft 15 kts 175°
2026-05-08 01:29 49.01597 2.54885 363 ft 20 kts 175°
2026-05-08 01:30 49.01449 2.54903 359 ft 22 kts 174°
2026-05-08 01:30 49.01292 2.54963 358 ft 23 kts 163°
2026-05-08 01:30 49.01141 2.55029 360 ft 23 kts 163°
2026-05-08 01:30 49.00986 2.55095 361 ft 22 kts 164°
2026-05-08 01:31 49.00834 2.55159 360 ft 22 kts 163°
2026-05-08 01:31 49.00698 2.55222 358 ft 20 kts 165°
2026-05-08 01:31 49.00617 2.55257 360 ft 17 kts 163°
2026-05-08 01:31 49.00546 2.55393 358 ft 18 kts 95°
2026-05-08 01:32 49.00555 2.55591 357 ft 19 kts 85°
2026-05-08 01:32 49.00565 2.55784 363 ft 18 kts 85°
2026-05-08 01:32 49.00565 2.55953 354 ft 16 kts 92°
2026-05-08 01:32 49.00589 2.56106 354 ft 14 kts 76°
2026-05-08 01:33 49.00598 2.56259 354 ft 15 kts 85°
2026-05-08 01:33 49.00602 2.56384 354 ft 6 kts 109°
2026-05-08 01:33 49.00570 2.56391 358 ft 4 kts 208°
2026-05-08 01:33 49.00549 2.56365 356 ft 4 kts 216°
2026-05-08 01:34 49.00542 2.56357 357 ft 0 kts 216°